Regional Weather Roundup
Issued by NWS

Home | Current Version | Previous Version | Text Only | Print | Product List | Glossary Off
Versions: 1 2 3 4 5 6 7 8 9 10 11 12 13 14 15 16 17 18 19 20 21 22 23 24 25 26 27 28 29 30 31 32 33 34 35 36 37 38 39 40 41 42 43 44 45 46 47 48 49 50

000
ASUS43 KLSX 301759
RWRMO

WEATHER SUMMARY FOR MISSOURI
NATIONAL WEATHER SERVICE SPRINGFIELD MO
100 PM CDT WED JUL 30 2014

NOTE: "FAIR" INDICATES FEW OR NO CLOUDS BELOW 12,000 FEET WITH NO
       SIGNIFICANT WEATHER AND/OR OBSTRUCTIONS TO VISIBILITY.
       CURRENT SKY AND/OR WEATHER CONDITIONS ARE NOT AVAILABLE FOR
       CHILLICOTHE AND FARMINGTON.

MOZ001>031-035>038-043-044-053-054-301900-
...NORTHERN AND WESTERN MISSOURI...

CITY           SKY/WX    TMP DP  RH WIND       PRES   REMARKS
KANSAS CTY INT CLOUDY    77  57  50 CALM      30.12F
6HR MIN TEMP:  63; 6HR MAX TEMP:  78;

KANSAS C DTWN  FAIR      79  56  45 E6        30.11F
6HR MIN TEMP:  68; 6HR MAX TEMP:  79;

LEE`S SUMMIT   FAIR      76  57  51 VRB5      30.12F
6HR MIN TEMP:  65; 6HR MAX TEMP:  78;

ST JOSEPH      FAIR      78  56  46 NE7       30.12F
6HR MIN TEMP:  61; 6HR MAX TEMP:  78;

CHILLICOTHE      N/A     79  56  45 MISG      30.12F
6HR MIN TEMP:  59; 6HR MAX TEMP:  80;

KIRKSVILLE     FAIR      81  53  37 NE3       30.12F
6HR MIN TEMP:  58; 6HR MAX TEMP:  81;


$$
MOZ066>068-077>081-088>096-101>105-301900-
...SOUTHWEST MISSOURI...

CITY           SKY/WX    TMP DP  RH WIND       PRES   REMARKS
SPRINGFIELD    LGT RAIN  69  65  86 SW5       30.12S FOG
6HR MIN TEMP:  68; 6HR MAX TEMP:  73; 6HR PCP:  0.01;

JOPLIN         CLOUDY    67  66  97 SE6       30.11F
6HR MIN TEMP:  66; 6HR MAX TEMP:  69; 6HR PCP:  0.15;


$$
MOZ032>034-039>042-045>050-055>058-069>072-301900-
...CENTRAL MISSOURI...

CITY           SKY/WX    TMP DP  RH WIND       PRES   REMARKS
COLUMBIA       PTSUNNY   77  58  51 CALM      30.11F
6HR MIN TEMP:  63; 6HR MAX TEMP:  79;

JEFFERSON CITY FAIR      77  60  55 CALM      30.10F
6HR MIN TEMP:  61; 6HR MAX TEMP:  77;

ROLLA          FAIR      74  58  57 E6        30.10F
6HR MIN TEMP:  62; 6HR MAX TEMP:  74;

SEDALIA        FAIR      76  61  59 CALM      30.12F
6HR MIN TEMP:  63; 6HR MAX TEMP:  77;

OSAGE BEACH    FAIR      72  59  64 CALM      30.11F

$$
MOZ051-052-059>065-301900-
...EAST CENTRAL MISSOURI...

CITY           SKY/WX    TMP DP  RH WIND       PRES   REMARKS
ST LOUIS INTL  PTSUNNY   82  52  35 N7        30.09F
6HR MIN TEMP:  67; 6HR MAX TEMP:  85;

SPIRIT OF STL  PTSUNNY   83  54  36 NW7       30.07F
6HR MIN TEMP:  60; 6HR MAX TEMP:  83;

ST CHARLES     FAIR      81  56  42 VRB5      30.08F
6HR MIN TEMP:  58; 6HR MAX TEMP:  82;


$$
MOZ072>076-082>087-097>100-106>115-301900-
...SOUTH CENTRAL AND SOUTHEAST MISSOURI...

CITY           SKY/WX    TMP DP  RH WIND       PRES   REMARKS
CAPE GIRARDEAU FAIR      75  59  57 S3        30.11F
6HR MIN TEMP:  62; 6HR MAX TEMP:  76;

FARMINGTON     FAIR      73  59  60 SW9       30.13S
6HR MIN TEMP:  61; 6HR MAX TEMP:  73;

POPLAR BLUFF   CLOUDY    75  59  57 S3        30.09F
6HR MIN TEMP:  61; 6HR MAX TEMP:  77;

WEST PLAINS    CLOUDY    73  62  68 SW6       30.13S
6HR MIN TEMP:  59; 6HR MAX TEMP:  74;


$$


USA.gov is the U.S. government's official web portal to all federal, state and local government web resources and services.